If you wish to contribute or participate in the discussions about articles you are invited to join SKYbrary as a registered user

 Actions

Alverca Airbase

From SKYbrary Wiki

LPAR
Airport
ICAO: LPAR
Summary
Name Alverca Airbase
Region Europe
Territory Portugal PT.gif
Location Alverca do Ribatejo, Vila Franca de Xira
Serving Military facility
Elevation 0.914 m <br />3 ft0.914 m <br />
Coordinates 38° 53' 22.20" N, 9° 1' 43.79" W
Runways
Designator Length Width Surface ROPS
4/22 2990 m9,809.711 ft <br /> 45 m147.638 ft <br /> ASP /


METAR
Observation LPAR 201600Z 30010KT 280V340 9999 FEW020 24/18 Q1021
Station ALVERCA
Date/Time 20 October 2021 16:00:00
Wind direction 300°
Wind speed 10 kts
Lowest cloud amount few clouds
Temperature 24°C
Dew point 18°C
Humidity 69%
QNH 1021 hPa
Weather condition n/a

Portuguese military base located north east of Lisbon.

Climatology

Warm mediterranean climate (Köppen climate classification Csa)

Maps

Terrain

Loading map...

Airport Layout

Loading map...


Accidents & Serious Incidents at or in vicinity of LPAR

None on SKYbrary